Terminal Aerodrome Forecast
Issued by NWS Louisville, KY

Home | Current Version | Previous Version | Text Only | Print | Product List | Glossary On
Versions: 1 2 3 4 5 6 7 8 9 10 11 12 13 14
000
FTUS43 KLMK 260900 AAA
TAFBWG
TAF AMD
KBWG 260945Z 2610/2706 27008KT 3SM SHRA VCTS SCT025 BKN035CB
     FM261200 33010KT 4SM -SHRA BR BKN008
     FM262200 34007KT P6SM SCT015 BKN080=

USA.gov is the U.S. government's official web portal to all federal, state and local government web resources and services.